New Bern, NC

10:37 AM EDT on June 29, 2017 (GMT -0400)
Craven County Regional

Weather History for KEWN - March, 2013

Change the Weather History Date:

Friday, March 29, 2013

  Actual Average Record
Temperature  
Mean Temperature 47 °F 57 °F  
Max Temperature 62 °F 69 °F 88 °F (1985)
Min Temperature 31 °F 46 °F 28 °F (1966)
Degree Days  
Heating Degree Days 18 8  
Month to date heating degree days 468 353  
Since 1 July heating degree days 2394 2499  
Cooling Degree Days 0 1  
Month to date cooling degree days 1 3  
Year to date cooling degree days 8 6  
Moisture  
Dew Point 29 °F    
Average Humidity 55    
Maximum Humidity 85    
Minimum Humidity 25    
Precipitation  
Precipitation 0.00 in 0.14 in 3.81 in (1990)
Month to date precipitation 1.17 4.12  
Year to date precipitation 7.31 11.80  
Snow  
Snow 0.00 in - - ()
Month to date snowfall 0.0  
Since 1 July snowfall T  
Snow Depth 0.00 in    
Sea Level Pressure  
Sea Level Pressure 30.27 in    
Wind  
Wind Speed 5 mph (WNW)    
Max Wind Speed 17 mph    
Max Gust Speed 25 mph    
Visibility 10 miles    
Events      
T = Trace of Precipitation, MM = Missing Value Source: NWS Daily Summary

Daily Weather History Graph

Daily Weather History Graph

Search for Another Location

Airport or City:

Trip Planner

Search our weather history database for the weather conditions in past years. The results will help you decide how hot, cold, wet, or windy it might be!

Date:

Astronomy

Mar. 29, 2013 Rise Set
Actual Time 6:58 AM EDT 7:27 PM EDT
Civil Twilight 6:33 AM EDT 7:52 PM EDT
Nautical Twilight 6:03 AM EDT 8:22 PM EDT
Astronomical Twilight 5:33 AM EDT 8:53 PM EDT
Moon 10:17 PM EDT 8:12 AM EDT
Length of Visible Light 13h 19m
Length of Day
12h 28m
Waning Gibbous, 93% of the Moon is Illuminated
Mar 29
Waning Gibbous
Apr 3
Last Quarter
Apr 10
New
Apr 18
First Quarter
Apr 25
Full

Hourly Weather History & Observations

Time (EDT) Temp. Windchill Dew Point Humidity Pressure Visibility Wind Dir Wind Speed Gust Speed Precip Events Conditions
12:54 AM 41.0 °F 37.1 °F 28.0 °F 60% 30.28 in 10.0 mi NNW 5.8 mph - N/A   Clear
1:54 AM 41.0 °F 38.0 °F 27.0 °F 57% 30.29 in 10.0 mi North 4.6 mph - N/A   Clear
2:54 AM 37.0 °F - 28.0 °F 70% 30.29 in 10.0 mi Calm Calm - N/A   Clear
3:54 AM 35.1 °F - 28.9 °F 78% 30.29 in 10.0 mi Calm Calm - N/A   Clear
4:54 AM 33.1 °F - 28.0 °F 82% 30.28 in 10.0 mi Calm Calm - N/A   Clear
5:54 AM 33.1 °F - 28.9 °F 85% 30.30 in 10.0 mi Calm Calm - N/A   Clear
6:54 AM 30.9 °F - 27.0 °F 85% 30.30 in 10.0 mi Calm Calm - N/A   Clear
7:54 AM 35.1 °F - 30.9 °F 85% 30.32 in 10.0 mi Calm Calm - N/A   Clear
8:54 AM 45.0 °F 41.8 °F 30.0 °F 56% 30.33 in 10.0 mi NW 5.8 mph - N/A   Clear
9:54 AM 52.0 °F - 28.0 °F 40% 30.33 in 10.0 mi Variable 4.6 mph - N/A   Clear
10:54 AM 53.1 °F - 25.0 °F 34% 30.32 in 10.0 mi North 10.4 mph - N/A   Clear
11:54 AM 55.0 °F - 25.0 °F 31% 30.31 in 10.0 mi North 13.8 mph 17.3 mph N/A   Clear
12:54 PM 57.0 °F - 26.1 °F 30% 30.29 in 10.0 mi North 9.2 mph - N/A   Clear
1:54 PM 60.1 °F - 26.1 °F 27% 30.26 in 10.0 mi Variable 5.8 mph 17.3 mph N/A   Clear
2:54 PM 59.0 °F - 25.0 °F 27% 30.23 in 10.0 mi West 8.1 mph - N/A   Partly Cloudy
3:54 PM 60.1 °F - 25.0 °F 26% 30.22 in 10.0 mi NW 4.6 mph - N/A   Clear
4:54 PM 59.0 °F - 26.1 °F 28% 30.20 in 10.0 mi WNW 10.4 mph 16.1 mph N/A   Scattered Clouds
5:54 PM 59.0 °F - 24.1 °F 26% 30.21 in 10.0 mi NNW 5.8 mph - N/A   Clear
6:54 PM 57.0 °F - 27.0 °F 32% 30.22 in 10.0 mi NW 5.8 mph - N/A   Clear
7:54 PM 48.0 °F - 30.9 °F 52% 30.22 in 10.0 mi South 3.5 mph - N/A   Clear
8:54 PM 48.9 °F - 34.0 °F 56% 30.24 in 10.0 mi SSW 6.9 mph - N/A   Clear
9:54 PM 46.9 °F - 35.1 °F 63% 30.25 in 10.0 mi SSW 3.5 mph - N/A   Clear
10:54 PM 45.0 °F 43.5 °F 35.1 °F 68% 30.26 in 10.0 mi South 3.5 mph - N/A   Clear
11:54 PM 45.0 °F 42.6 °F 37.0 °F 74% 30.25 in 10.0 mi South 4.6 mph - N/A   Clear